This is the latest recevied weather packets stored in our database for station/object WC4PEM-8. If no packets are shown the sender has not sent any weather packets the latest 1 day(s).
| Time | Temp. | Humidity | Pressure | Rain* | Wind** | Luminosity | Snow |
|---|---|---|---|---|---|---|---|
| 1778094054 | 32.78° C | 46% | 1015.3 hPa | 0 mm | - | - | - |
| 1778093754 | 32.78° C | 45% | 1015.4 hPa | 0 mm | - | - | - |
| 1778093454 | 32.78° C | 45% | 1015.5 hPa | 0 mm | - | - | - |
| 1778093154 | 32.78° C | 45% | 1015.6 hPa | 0 mm | - | - | - |
| 1778093018 | 32.78° C | 43% | 1015.7 hPa | 0 mm | - | - | - |
| 1778092854 | 32.78° C | 43% | 1015.7 hPa | 0 mm | - | - | - |
| 1778092554 | 32.78° C | 43% | 1015.8 hPa | 0 mm | - | - | - |
| 1778092254 | 33.33° C | 45% | 1015.8 hPa | 0 mm | - | - | - |
| 1778092157 | 33.33° C | 47% | 1015.8 hPa | 0 mm | - | - | - |
| 1778091954 | 33.33° C | 47% | 1015.8 hPa | 0 mm | - | - | - |
| 1778091654 | 32.22° C | 46% | 1015.9 hPa | 0 mm | - | - | - |
| 1778091354 | 32.22° C | 45% | 1015.8 hPa | 0 mm | - | - | - |
| 1778091196 | 32.78° C | 46% | 1016 hPa | 0 mm | - | - | - |
| 1778091054 | 32.78° C | 46% | 1016 hPa | 0 mm | - | - | - |
| 1778090754 | 32.22° C | 46% | 1016 hPa | 0 mm | - | - | - |
| 1778090454 | 32.22° C | 47% | 1016 hPa | 0 mm | - | - | - |
| 1778090154 | 31.67° C | 48% | 1016 hPa | 0 mm | - | - | - |
| 1778089854 | 31.67° C | 48% | 1016.1 hPa | 0 mm | - | - | - |
| 1778089554 | 31.67° C | 49% | 1016.1 hPa | 0 mm | - | - | - |
| 1778089254 | 31.67° C | 49% | 1016.3 hPa | 0 mm | - | - | - |
| 1778088954 | 31.67° C | 51% | 1016.4 hPa | 0 mm | - | - | - |
| 1778088654 | 31.11° C | 52% | 1016.3 hPa | 0 mm | - | - | - |
| 1778088354 | 31.11° C | 51% | 1016.4 hPa | 0 mm | - | - | - |
| 1778088054 | 31.11° C | 51% | 1016.4 hPa | 0 mm | - | - | - |
| 1778087754 | 31.11° C | 50% | 1016.6 hPa | 0 mm | - | - | - |
* Rain latest hour (hover to see other rain measurements)
** Current wind speed in m/s (hover to see current wind gust speed)